Regional Weather Roundup
Issued by NWS

Home | Current Version | Previous Version | Text Only | Print | Product List | Glossary Off
Versions: 1 2 3 4 5 6 7 8 9 10 11 12 13 14 15 16 17 18 19 20 21 22 23 24 25 26 27 28 29 30 31 32 33 34 35 36 37 38 39 40 41 42 43 44 45 46 47 48 49 50

000
ASUS45 KABQ 062201
RWRNM
NEW MEXICO REGIONAL WEATHER ROUNDUP
NATIONAL WEATHER SERVICE ALBUQUERQUE NM
400 PM MDT MON JUL 06 2015

NOTE: "FAIR" MEANS FEW OR NO CLOUDS BELOW 12,000 FEET AGL WITH NO
       SIGNIFICANT WEATHER OR OBSTRUCTIONS TO VISION.

      THIS PRODUCT IS RELEASED AS TWO VERSIONS.  ONE VERSION NEAR
      THE TOP OF THE HOUR CONTAINING PRELIMINARY DATA FROM ALBUQUERQUE
      AND OTHER STATIONS.  A FINAL VERSION WITH ADDITIONAL DATA IS
      ISSUED ABOUT 10 MINUTES AFTER THE HOUR.

NMZ501-503-504-510>518-062300-
NORTHWEST PLATEAU/NORTHCENTRAL MOUNTAINS

CITY           SKY/WX    TMP DP  RH WIND       PRES   REMARKS
FARMINGTON     PTSUNNY   82  49  31 N17       30.08S
SANTA FE       PTSUNNY   75  53  46 N12       30.19F
TAOS           CLOUDY    64  48  55 SE15      30.27F

$$
NMZ402-403-502-505>509-062300-
WESTCENTRAL MOUNTAINS/SOUTHWEST MOUNTAINS

CITY           SKY/WX    TMP DP  RH WIND       PRES   REMARKS
GALLUP         MOSUNNY   81  48  31 N12       30.19F
SILVER CITY      N/A     88  52  29 W6G23     30.12F

$$
NMZ407-409-411-412-062300-
SOUTHERN DESERTS

CITY           SKY/WX    TMP DP  RH WIND       PRES   REMARKS
DEMING         MOSUNNY   92  53  26 W8G16     30.01F
ALAMOGORDO     SUNNY     93  52  24 W12G18    29.98F
T OR C         MOSUNNY   92  48  22 N9        30.04F

$$
NMZ519>523-062300-
CENTRAL VALLEYS/CENTRAL HIGHLANDS

CITY           SKY/WX    TMP DP  RH WIND       PRES   REMARKS
ALBUQUERQUE    MOSUNNY   89  50  26 CALM      30.08F
DOUBLE EAGLE   PTSUNNY   88  52  29 W9        30.12F
MORIARTY ARPT    N/A     76  55  47 E22G28    30.19S THUNDER
CLINES CORNERS PTSUNNY   69  60  73 NE23G31   30.23F
BELEN          MOCLDY    89  50  25 E6        30.07F
SOCORRO        NOT AVBL

$$
NMZ524>526-539-540-062300-
SOUTHCENTRAL MOUNTAINS

CITY           SKY/WX    TMP DP  RH WIND       PRES   REMARKS
RUIDOSO        NOT AVBL

$$
NMZ527>531-062300-
NORTHEAST HIGHLANDS/NORTHEAST PLAINS

CITY           SKY/WX    TMP DP  RH WIND       PRES   REMARKS
LAS VEGAS      LGT RAIN  60  58  92 NE10      30.30R
RATON          LGT RAIN  64  59  83 NE5       30.25F
CLAYTON        CLOUDY    68  61  78 N16G24    30.18R

$$
NMZ532>537-062300-
EASTCENTRAL PLAINS

CITY           SKY/WX    TMP DP  RH WIND       PRES   REMARKS
TUCUMCARI      PTSUNNY   84  60  44 NE28      30.02S
CANNON AFB     PTSUNNY   82  66  56 NE10G26   30.01S
CLOVIS AIRPORT CLOUDY    70  64  83 NE10        N/A

$$
NMZ028-029-538-062300-
SOUTHEAST PLAINS

CITY           SKY/WX    TMP DP  RH WIND       PRES   REMARKS
ROSWELL        CLOUDY    91  60  35 SW9       29.92F
ARTESIA        CLOUDY    88  64  45 W10G18    29.93F
CARLSBAD       MOSUNNY  102  56  21 W6        29.88F HX 101
HOBBS          MOSUNNY   97  55  24 S13G23    29.93F HX  95


$$


USA.gov is the U.S. government's official web portal to all federal, state and local government web resources and services.